JTE505 YPAD-YBDG

Flight info

Callsign JTE505
Flight time 0h 52m
Altitude 25000
Route BENDO Y12 LULTO
Aircraft RJ1H/M-SDFGIRWY/LB1

Departure

Time 2026-05-04 04:54
Airport Adelaide International Airport (YPAD)

Arrival

Time 2026-05-04 05:47
Airport Bendigo Airport (YBDG)
Time Latitude Longitude Altitude Speed Heading
2026-05-04 04:29 -34.94032 138.53512 27 ft 0 kts 184°
2026-05-04 04:35 -34.94028 138.53513 27 ft 4 kts 183°
2026-05-04 04:35 -34.94001 138.53511 27 ft 4 kts 181°
2026-05-04 04:35 -34.93988 138.53517 27 ft 1 kts 217°
2026-05-04 04:35 -34.93987 138.53518 27 ft 0 kts 217°
2026-05-04 04:41 -34.94004 138.53502 27 ft 6 kts 221°
2026-05-04 04:42 -34.94035 138.53460 27 ft 7 kts 230°
2026-05-04 04:42 -34.94041 138.53452 27 ft 6 kts 230°
2026-05-04 04:43 -34.94065 138.53417 27 ft 7 kts 230°
2026-05-04 04:43 -34.94105 138.53366 27 ft 9 kts 211°
2026-05-04 04:43 -34.94155 138.53379 27 ft 8 kts 140°
2026-05-04 04:44 -34.94206 138.53430 27 ft 9 kts 140°
2026-05-04 04:44 -34.94252 138.53477 27 ft 8 kts 137°
2026-05-04 04:44 -34.94255 138.53538 27 ft 8 kts 51°
2026-05-04 04:44 -34.94222 138.53591 25 ft 8 kts 67°
2026-05-04 04:45 -34.94237 138.53650 25 ft 9 kts 137°
2026-05-04 04:45 -34.94248 138.53713 24 ft 7 kts 66°
2026-05-04 04:45 -34.94220 138.53759 24 ft 6 kts 50°
2026-05-04 04:47 -34.94014 138.54058 28 ft 9 kts 50°
2026-05-04 04:47 -34.93974 138.54117 26 ft 9 kts 50°
2026-05-04 04:47 -34.93949 138.54173 27 ft 7 kts 91°
2026-05-04 04:47 -34.93973 138.54220 26 ft 7 kts 139°
2026-05-04 04:48 -34.93989 138.54236 30 ft 0 kts 140°
2026-05-04 04:52 -34.94027 138.54275 27 ft 10 kts 140°
2026-05-04 04:53 -34.94084 138.54298 28 ft 12 kts 223°
2026-05-04 04:53 -34.94219 138.54103 27 ft 51 kts 230°
2026-05-04 04:53 -34.94529 138.53645 23 ft 87 kts 231°
2026-05-04 04:53 -34.94972 138.52999 23 ft 114 kts 230°
2026-05-04 04:54 -34.95524 138.52206 152 ft 124 kts 230°
2026-05-04 04:54 -34.96103 138.51434 430 ft 122 kts 229°
2026-05-04 04:54 -34.96768 138.50789 677 ft 126 kts 205°
2026-05-04 04:54 -34.97663 138.50833 898 ft 137 kts 168°
2026-05-04 04:55 -34.98530 138.51330 1149 ft 140 kts 158°
2026-05-04 04:55 -34.99434 138.51955 1148 ft 158 kts 154°
2026-05-04 04:55 -35.00398 138.52709 1194 ft 171 kts 153°
2026-05-04 04:55 -35.01419 138.53537 1250 ft 182 kts 148°
2026-05-04 04:56 -35.02508 138.54407 1567 ft 190 kts 151°
2026-05-04 04:56 -35.03652 138.55355 1910 ft 211 kts 150°
2026-05-04 04:56 -35.04904 138.56406 2392 ft 225 kts 150°
2026-05-04 04:56 -35.06175 138.57563 3062 ft 234 kts 139°
2026-05-04 04:57 -35.06924 138.59390 3748 ft 250 kts 107°
2026-05-04 04:57 -35.07277 138.61469 4570 ft 253 kts 105°
2026-05-04 04:57 -35.07629 138.63587 5378 ft 258 kts 104°
2026-05-04 04:57 -35.07978 138.65791 6076 ft 269 kts 104°
2026-05-04 04:58 -35.08339 138.68051 6941 ft 273 kts 104°
2026-05-04 04:58 -35.08722 138.70339 7809 ft 277 kts 105°
2026-05-04 04:58 -35.09132 138.72651 8660 ft 280 kts 106°
2026-05-04 04:58 -35.09559 138.74962 9480 ft 285 kts 106°
2026-05-04 04:59 -35.10007 138.77330 10289 ft 288 kts 106°
2026-05-04 04:59 -35.10470 138.79715 11058 ft 290 kts 107°
2026-05-04 04:59 -35.10943 138.82121 11816 ft 293 kts 107°
2026-05-04 04:59 -35.11418 138.84550 12557 ft 295 kts 107°
2026-05-04 05:00 -35.11897 138.86999 13288 ft 298 kts 108°
2026-05-04 05:00 -35.12389 138.89468 13981 ft 301 kts 108°
2026-05-04 05:00 -35.13368 138.94461 15148 ft 307 kts 108°
2026-05-04 05:01 -35.13870 138.97016 15696 ft 311 kts 108°
2026-05-04 05:01 -35.14371 138.99598 16252 ft 314 kts 108°
2026-05-04 05:01 -35.14872 139.02209 16781 ft 317 kts 108°
2026-05-04 05:01 -35.15377 139.04849 17328 ft 320 kts 109°
2026-05-04 05:02 -35.15899 139.07506 17862 ft 323 kts 109°
2026-05-04 05:02 -35.16425 139.10184 18379 ft 326 kts 109°
2026-05-04 05:02 -35.16947 139.12892 18813 ft 328 kts 109°
2026-05-04 05:02 -35.17463 139.15580 19249 ft 330 kts 109°
2026-05-04 05:03 -35.18000 139.18318 19669 ft 332 kts 109°
2026-05-04 05:03 -35.18543 139.21075 20072 ft 335 kts 109°
2026-05-04 05:04 -35.20150 139.29462 21436 ft 333 kts 109°
2026-05-04 05:04 -35.20668 139.32213 21967 ft 332 kts 109°
2026-05-04 05:04 -35.21188 139.34975 22324 ft 335 kts 109°
2026-05-04 05:06 -35.25291 139.54206 24739 ft 329 kts 121°
2026-05-04 05:06 -35.26217 139.56739 24909 ft 325 kts 123°
2026-05-04 05:06 -35.27197 139.59263 24995 ft 333 kts 123°
2026-05-04 05:07 -35.28202 139.61816 25023 ft 342 kts 123°
2026-05-04 05:07 -35.29244 139.64471 25041 ft 351 kts 123°
2026-05-04 05:07 -35.30300 139.67207 25051 ft 360 kts 122°
2026-05-04 05:09 -35.39311 139.91609 25032 ft 424 kts 120°
2026-05-04 05:09 -35.40518 139.94879 25030 ft 431 kts 120°
2026-05-04 05:10 -35.41760 139.98249 25043 ft 437 kts 119°
2026-05-04 05:10 -35.43034 140.01661 25033 ft 443 kts 120°
2026-05-04 05:10 -35.44321 140.05118 25029 ft 447 kts 119°
2026-05-04 05:10 -35.45593 140.08605 25019 ft 449 kts 119°
2026-05-04 05:11 -35.46862 140.12101 25013 ft 449 kts 119°
2026-05-04 05:11 -35.48127 140.15599 25008 ft 449 kts 119°
2026-05-04 05:11 -35.49403 140.19116 25006 ft 453 kts 119°
2026-05-04 05:11 -35.50683 140.22613 25019 ft 458 kts 119°
2026-05-04 05:12 -35.52002 140.26180 25007 ft 460 kts 119°
2026-05-04 05:12 -35.53331 140.29757 25003 ft 461 kts 119°
2026-05-04 05:12 -35.54642 140.33348 24998 ft 461 kts 118°
2026-05-04 05:12 -35.55939 140.36954 24995 ft 461 kts 118°
2026-05-04 05:13 -35.57229 140.40555 24995 ft 461 kts 118°
2026-05-04 05:13 -35.58537 140.44145 25002 ft 461 kts 118°
2026-05-04 05:13 -35.59863 140.47735 24996 ft 462 kts 118°
2026-05-04 05:13 -35.61179 140.51346 24991 ft 463 kts 117°
2026-05-04 05:14 -35.62476 140.54974 24989 ft 464 kts 117°
2026-05-04 05:14 -35.63769 140.58604 24990 ft 464 kts 117°
2026-05-04 05:14 -35.65086 140.62230 24989 ft 464 kts 118°
2026-05-04 05:14 -35.66385 140.65804 25004 ft 465 kts 117°
2026-05-04 05:15 -35.67699 140.69438 24989 ft 465 kts 117°
2026-05-04 05:15 -35.69019 140.73071 24988 ft 465 kts 117°
2026-05-04 05:15 -35.70333 140.76705 24985 ft 465 kts 117°
2026-05-04 05:15 -35.71616 140.80344 24985 ft 460 kts 116°
2026-05-04 05:16 -35.72898 140.83944 24982 ft 459 kts 117°
2026-05-04 05:16 -35.74194 140.87534 24980 ft 460 kts 117°
2026-05-04 05:16 -35.75493 140.91125 24989 ft 460 kts 116°
2026-05-04 05:16 -35.76785 140.94727 24982 ft 460 kts 116°
2026-05-04 05:17 -35.78073 140.98331 24978 ft 460 kts 116°
2026-05-04 05:17 -35.79343 141.01886 24977 ft 459 kts 116°
2026-05-04 05:17 -35.80629 141.05489 24977 ft 460 kts 116°
2026-05-04 05:17 -35.81898 141.09103 24977 ft 460 kts 116°
2026-05-04 05:18 -35.83171 141.12721 24982 ft 461 kts 116°
2026-05-04 05:18 -35.84449 141.16348 24974 ft 462 kts 115°
2026-05-04 05:18 -35.85724 141.19986 24972 ft 462 kts 115°
2026-05-04 05:18 -35.86999 141.23626 24971 ft 462 kts 115°
2026-05-04 05:19 -35.88274 141.27258 24964 ft 462 kts 116°
2026-05-04 05:19 -35.89572 141.30883 24964 ft 462 kts 116°
2026-05-04 05:19 -35.90853 141.34514 24971 ft 462 kts 115°
2026-05-04 05:19 -35.92138 141.38146 24969 ft 462 kts 115°
2026-05-04 05:20 -35.93412 141.41733 24966 ft 463 kts 115°
2026-05-04 05:20 -35.94705 141.45365 24963 ft 463 kts 115°
2026-05-04 05:20 -35.95944 141.49034 24962 ft 463 kts 112°
2026-05-04 05:20 -35.96999 141.52793 24957 ft 464 kts 109°
2026-05-04 05:21 -35.98004 141.56577 24961 ft 464 kts 110°
2026-05-04 05:21 -35.99028 141.60350 24961 ft 464 kts 110°
2026-05-04 05:21 -36.00077 141.64122 24959 ft 464 kts 110°
2026-05-04 05:21 -36.01146 141.67877 24959 ft 464 kts 111°
2026-05-04 05:22 -36.02242 141.71625 24952 ft 464 kts 111°
2026-05-04 05:22 -36.03318 141.75325 24954 ft 464 kts 111°
2026-05-04 05:22 -36.04403 141.79133 24954 ft 464 kts 111°
2026-05-04 05:22 -36.05458 141.82841 24965 ft 464 kts 110°
2026-05-04 05:23 -36.06537 141.86604 24961 ft 464 kts 111°
2026-05-04 05:23 -36.07617 141.90361 24954 ft 464 kts 111°
2026-05-04 05:23 -36.08700 141.94124 24948 ft 464 kts 111°
2026-05-04 05:23 -36.09781 141.97883 24944 ft 464 kts 111°
2026-05-04 05:24 -36.10863 142.01639 24955 ft 464 kts 111°
2026-05-04 05:24 -36.11922 142.05411 24957 ft 464 kts 110°
2026-05-04 05:24 -36.12976 142.09189 24947 ft 465 kts 110°
2026-05-04 05:24 -36.14035 142.12972 24945 ft 466 kts 110°
2026-05-04 05:25 -36.15093 142.16753 24949 ft 466 kts 110°
2026-05-04 05:25 -36.16152 142.20484 24943 ft 465 kts 110°
2026-05-04 05:25 -36.17235 142.24248 24938 ft 465 kts 110°
2026-05-04 05:25 -36.18300 142.28026 24943 ft 465 kts 110°
2026-05-04 05:26 -36.19370 142.31802 24944 ft 465 kts 110°
2026-05-04 05:26 -36.20446 142.35579 24945 ft 465 kts 110°
2026-05-04 05:26 -36.21517 142.39361 24939 ft 466 kts 109°
2026-05-04 05:26 -36.22563 142.43154 24932 ft 466 kts 109°
2026-05-04 05:27 -36.23611 142.46950 24935 ft 465 kts 110°
2026-05-04 05:28 -36.31031 142.73480 24935 ft 467 kts 109°
2026-05-04 05:29 -36.32065 142.77297 24940 ft 467 kts 109°
2026-05-04 05:29 -36.33114 142.81103 24931 ft 467 kts 108°
2026-05-04 05:29 -36.34156 142.84921 24930 ft 467 kts 108°
2026-05-04 05:29 -36.35198 142.88740 24928 ft 467 kts 108°
2026-05-04 05:31 -36.42431 143.15037 21857 ft 445 kts 109°
2026-05-04 05:31 -36.43413 143.18668 21203 ft 441 kts 109°
2026-05-04 05:32 -36.44381 143.22271 20570 ft 438 kts 109°
2026-05-04 05:32 -36.45356 143.25838 19932 ft 434 kts 109°
2026-05-04 05:32 -36.46324 143.29373 19316 ft 431 kts 109°
2026-05-04 05:33 -36.48202 143.36379 18126 ft 425 kts 109°
2026-05-04 05:33 -36.49135 143.39790 17462 ft 421 kts 109°
2026-05-04 05:33 -36.50066 143.43213 16796 ft 416 kts 109°
2026-05-04 05:33 -36.50974 143.46611 16150 ft 412 kts 109°
2026-05-04 05:34 -36.51872 143.49983 15522 ft 409 kts 109°
2026-05-04 05:34 -36.52765 143.53322 14912 ft 406 kts 109°
2026-05-04 05:34 -36.53655 143.56629 14306 ft 402 kts 109°
2026-05-04 05:34 -36.54539 143.59907 13710 ft 398 kts 109°
2026-05-04 05:35 -36.55418 143.63162 13045 ft 395 kts 109°
2026-05-04 05:35 -36.56292 143.66380 12394 ft 391 kts 109°
2026-05-04 05:35 -36.57148 143.69522 11753 ft 387 kts 108°
2026-05-04 05:35 -36.57994 143.72689 11126 ft 384 kts 108°
2026-05-04 05:36 -36.58821 143.75828 10516 ft 379 kts 107°
2026-05-04 05:36 -36.59658 143.78933 9913 ft 377 kts 108°
2026-05-04 05:36 -36.60481 143.82015 9260 ft 373 kts 107°
2026-05-04 05:36 -36.61281 143.85072 8602 ft 371 kts 107°
2026-05-04 05:37 -36.62081 143.88126 7962 ft 371 kts 107°
2026-05-04 05:37 -36.62929 143.91144 7326 ft 366 kts 114°
2026-05-04 05:37 -36.64321 143.93715 6748 ft 354 kts 130°
2026-05-04 05:38 -36.67395 143.98376 5490 ft 347 kts 130°
2026-05-04 05:38 -36.68939 144.00672 4870 ft 344 kts 130°
2026-05-04 05:38 -36.70466 144.02921 4542 ft 336 kts 131°
2026-05-04 05:38 -36.71957 144.05103 4279 ft 324 kts 131°
2026-05-04 05:39 -36.73394 144.07208 4018 ft 314 kts 131°
2026-05-04 05:39 -36.76024 144.11026 3345 ft 277 kts 131°
2026-05-04 05:39 -36.77284 144.12842 3005 ft 277 kts 130°
2026-05-04 05:40 -36.79822 144.16395 2557 ft 276 kts 131°
2026-05-04 05:40 -36.81105 144.18173 2377 ft 275 kts 130°
2026-05-04 05:40 -36.82341 144.19971 2150 ft 265 kts 128°
2026-05-04 05:41 -36.83279 144.21745 1958 ft 229 kts 117°
2026-05-04 05:41 -36.84046 144.23397 1957 ft 214 kts 117°
2026-05-04 05:41 -36.84717 144.24977 2030 ft 197 kts 112°
2026-05-04 05:41 -36.85293 144.26496 2159 ft 190 kts 110°
2026-05-04 05:42 -36.85793 144.27967 2240 ft 177 kts 98°
2026-05-04 05:42 -36.85802 144.29378 2350 ft 161 kts 68°
2026-05-04 05:42 -36.85532 144.30754 2278 ft 167 kts 67°
2026-05-04 05:42 -36.85187 144.32157 2204 ft 164 kts 52°
2026-05-04 05:43 -36.84378 144.33029 2105 ft 150 kts 13°
2026-05-04 05:43 -36.83396 144.33076 2069 ft 139 kts 347°
2026-05-04 05:43 -36.82459 144.32790 1970 ft 139 kts 342°
2026-05-04 05:45 -36.76146 144.32925 1127 ft 120 kts 358°
2026-05-04 05:45 -36.75317 144.32954 924 ft 116 kts 358°
2026-05-04 05:47 -36.73326 144.33026 682 ft 11 kts 181°
2026-05-04 05:47 -36.73415 144.33023 684 ft 19 kts 181°
2026-05-04 05:47 -36.73603 144.33015 683 ft 31 kts 182°
2026-05-04 05:48 -36.73727 144.33001 692 ft 6 kts 223°
2026-05-04 05:48 -36.73733 144.32940 690 ft 8 kts 271°
2026-05-04 05:48 -36.73732 144.32872 689 ft 9 kts 271°
2026-05-04 05:48 -36.73737 144.32767 685 ft 12 kts 226°
2026-05-04 05:49 -36.73818 144.32754 686 ft 9 kts 181°
2026-05-04 05:49 -36.73847 144.32748 686 ft 5 kts 209°
2026-05-04 05:49 -36.73890 144.32718 682 ft 7 kts 188°
2026-05-04 05:49 -36.73919 144.32708 685 ft 3 kts 240°
2026-05-04 05:51 -36.73900 144.32677 686 ft 0 kts 318°